Terug naar catalogus

ORBCOMM FM 119

ActiefCommunicatieLEO
NORAD 41180·PAYLOAD·🇺🇸 United States

Gelanceerd Dec 22, 2015 vanaf Cape Canaveral Space Force Station

Loading…

Volgende Passages (komende 24 uur)

TLE

VersSource: Space-Track

Epoch: Sep 14, 2026, 13:32 UTC

1 41180U 15081B   26257.56391083  .00000332  00000-0  10635-3 0  9992
2 41180  46.9993 208.7837 0001874 310.4412  49.6310 14.58875530572054

Volg ORBCOMM FM 119 in realtime met AllMySat

Download on the App Store